TimeIST,TemperatureF,Dew PointF,Humidity,Sea Level PressureIn,VisibilityMPH,Wind Direction,Wind SpeedMPH,Gust SpeedMPH,PrecipitationIn,Events,Conditions,WindDirDegrees,DateUTC
12:50 AM,71.6,60.8,69,29.83,-9999.0,Variable,1.2,-,N/A,,Clear,0,2012-10-10 22:50:00
1:50 AM,69.8,59.0,68,29.80,-9999.0,ESE,2.3,-,N/A,,Clear,110,2012-10-10 23:50:00
2:00 AM,70,60,62,29.82,6,ESE,2.3,,,,,110,2012-10-11 00:00:00
2:50 AM,69.8,57.2,64,29.80,-9999.0,Variable,2.3,-,N/A,,Clear,0,2012-10-11 00:50:00
3:50 AM,69.8,53.6,56,29.80,-9999.0,Variable,2.3,-,N/A,,Clear,0,2012-10-11 01:50:00
4:50 AM,69.8,51.8,53,29.80,-9999.0,South,3.5,-,N/A,,Clear,170,2012-10-11 02:50:00
5:50 AM,66.2,51.8,60,29.80,-9999.0,Calm,Calm,-,N/A,,Clear,0,2012-10-11 03:50:00
6:50 AM,69.8,51.8,53,29.80,-9999.0,East,2.3,-,N/A,,Clear,100,2012-10-11 04:50:00
7:50 AM,77.0,50.0,39,29.83,-9999.0,South,2.3,-,N/A,,Clear,170,2012-10-11 05:50:00
8:00 AM,78,50,26,29.84,6,South,2.3,,,,Clear,170,2012-10-11 06:00:00
8:50 AM,84.2,51.8,33,29.83,-9999.0,South,12.7,-,N/A,,Clear,190,2012-10-11 06:50:00
9:50 AM,87.8,50.0,27,29.83,-9999.0,SSW,13.8,-,N/A,,Clear,200,2012-10-11 07:50:00
10:50 AM,89.6,51.8,27,29.83,-9999.0,SW,13.8,-,N/A,,Clear,230,2012-10-11 08:50:00
11:50 AM,89.6,53.6,29,29.83,6.2,WSW,17.3,-,N/A,,Partly Cloudy,240,2012-10-11 09:50:00
12:50 PM,89.6,53.6,29,29.83,6.2,West,17.3,-,N/A,,Partly Cloudy,260,2012-10-11 10:50:00
1:50 PM,87.8,57.2,35,29.83,6.2,WSW,16.1,-,N/A,,Partly Cloudy,250,2012-10-11 11:50:00
2:00 PM,87,56,25,29.82,6,WSW,16.1,,,,Scattered Clouds,250,2012-10-11 12:00:00
2:50 PM,86.0,57.2,37,29.83,6.2,West,12.7,-,N/A,,Partly Cloudy,260,2012-10-11 12:50:00
3:50 PM,84.2,64.4,51,29.83,-9999.0,West,12.7,-,N/A,,Clear,270,2012-10-11 13:50:00
4:50 PM,82.4,68.0,62,29.83,5.0,West,11.5,-,N/A,,Partly Cloudy,270,2012-10-11 14:50:00
5:50 PM,80.6,68.0,65,29.86,6.2,West,6.9,-,N/A,,Partly Cloudy,280,2012-10-11 15:50:00
6:50 PM,78.8,68.0,69,29.89,6.2,West,2.3,-,N/A,,Partly Cloudy,280,2012-10-11 16:50:00
7:50 PM,78.8,66.2,65,29.89,6.2,West,1.2,-,N/A,,Partly Cloudy,260,2012-10-11 17:50:00
8:00 PM,79,67,58,29.90,6,West,1.2,,,,Scattered Clouds,260,2012-10-11 18:00:00
8:50 PM,77.0,66.2,69,29.89,6.2,Calm,Calm,-,N/A,,Partly Cloudy,0,2012-10-11 18:50:00
9:50 PM,77.0,66.2,69,29.92,6.2,ENE,2.3,-,N/A,,Scattered Clouds,70,2012-10-11 19:50:00
10:50 PM,77.0,66.2,69,29.92,-9999.0,SSE,3.5,-,N/A,,Clear,160,2012-10-11 20:50:00
11:50 PM,75.2,66.2,73,29.92,-9999.0,ENE,3.5,-,N/A,,Clear,70,2012-10-11 21:50:00